#timestamp,LO_Frequency,Hit 
1503867615.6,286047003.2,N
1503867635.5,286047003.2,N
1503867655.3,286047003.5,N
1503867675.1,286047004.2,N
1503867695.8,286047003.9,N
1503867715.7,286047003.7,N
1503867735.5,286047006.0,P
1503867755.3,286047003.9,N
1503867775.2,286047003.8,N
1503867795.0,286047004.0,P
1503867795.9,286047004.0,P
1503867815.8,286046999.0,P
1503867835.6,286046998.4,N
1503867855.4,286047000.5,N
1503867875.2,286047000.2,N
1503867895.1,286047000.0,N
1503867896.0,286047000.0,N
1503867915.8,286046998.6,N
1503867935.6,286046999.2,N
1503867955.5,286046999.3,N
1503867975.3,286046996.6,N
1503867995.1,286046996.6,N
1503868015.9,286046998.9,N
1503868035.7,286047001.0,N
1503868055.5,286047000.5,N
1503868075.4,286046999.0,N
1503868095.2,286046999.1,N
1503868115.0,286046996.5,N
1503868115.9,286046996.5,N
1503868135.8,286046998.2,N
1503868155.6,286046998.5,N
1503868175.4,286047001.1,N
1503868195.2,286047000.5,N
1503868215.1,286046998.3,N
1503868216.0,286046998.3,N
1503868235.8,286047001.1,N
1503868255.6,286047000.5,N
1503868275.5,286046998.7,N
1503868295.3,286046999.1,N
1503868315.1,286046998.4,N
1503868335.9,286046998.3,N
1503868355.7,286047000.9,N
1503868375.5,286046998.1,N
1503868395.4,286046996.6,N
1503868415.2,286046997.3,N
1503868435.0,286046999.1,N
1503868435.9,286046999.1,N
1503868455.8,286047001.1,N
1503868475.6,286047001.1,N
1503868495.4,286047001.2,N
1503868515.2,286046997.7,N
1503868535.1,286047001.2,N
1503868536.0,286047001.2,N
1503868555.8,286047001.5,N
1503868575.6,286047003.2,N
1503868595.5,286047001.8,N
1503868615.3,286047001.6,N
1503868635.1,286046999.9,N
1503868655.9,286047001.7,N
1503868675.7,286047004.0,N
1503868695.5,286047001.5,N
1503868715.4,286047001.7,N
1503868735.2,286047002.8,N
1503868755.0,286047000.7,N
1503868755.9,286047000.7,N
1503868775.8,286047002.5,N
1503868795.6,286047000.3,N
1503868815.4,286047000.9,N
1503868835.3,286046998.1,N
1503868855.1,286046998.2,N
1503868856.0,286046998.2,N
1503868875.8,286047000.8,N
1503868895.7,286046998.6,N
1503868915.5,286047001.2,N
1503868935.3,286047002.8,N
1503868955.1,286047001.9,N
1503868975.9,286047001.9,N
1503868995.7,286047002.4,N
1503869015.5,286047003.9,N
1503869035.4,286047001.3,N
1503869055.2,286047003.9,N
1503869075.0,286047001.4,N
1503869075.9,286047001.4,N
1503869095.8,286047004.2,N
1503869115.6,286047005.7,P
1503869135.4,286047005.8,N
1503869155.3,286047005.2,N
1503869175.1,286047004.6,N
1503869195.8,286047003.0,N
1503869215.7,286047002.9,N
1503869235.5,286047004.2,N
1503869255.3,286047001.7,N
1503869275.2,286047002.3,N
1503869295.9,286047001.1,N
1503869315.7,286047000.3,N
1503869335.5,286047003.8,N
1503869355.4,286047003.1,N
1503869375.2,286047001.8,N
1503869395.0,286047002.1,N
1503869395.9,286047002.1,N
1503869415.8,286047002.9,N
1503869435.6,286047005.4,P
1503869455.4,286047003.0,N
1503869475.3,286047003.0,N
1503869495.1,286047003.5,P
1503869515.9,286046999.2,P
1503869535.7,286046999.5,N
1503869555.5,286046998.9,N
1503869575.3,286047001.1,N
1503869595.2,286046998.6,N
1503869615.0,286046996.7,N
1503869615.9,286046996.7,N
1503869635.7,286046999.4,N
1503869655.6,286046999.3,N
1503869675.4,286046996.6,N
1503869695.2,286046996.6,N
1503869715.1,286046999.3,N
1503869716.0,286046999.3,N
1503869735.8,286047000.6,N
1503869755.6,286046999.8,N
1503869775.5,286046999.8,N
1503869795.3,286046999.7,N
1503869815.1,286047000.2,N
1503869835.9,286047000.1,N
1503869855.7,286047004.4,N
1503869875.5,286047003.6,N
1503869895.3,286047004.2,N
1503869915.2,286047001.7,N
1503869935.0,286047001.3,N
1503869935.9,286047001.3,N
1503869955.7,286047002.8,N
1503869975.6,286047002.1,N
1503869995.4,286047000.6,N
1503870015.2,286047002.5,N
1503870035.1,286047000.5,N
1503870036.0,286047000.5,N
1503870055.8,286046999.9,N
1503870075.6,286047000.6,N
1503870095.5,286047000.5,N
1503870115.3,286047001.4,N
1503870135.1,286047001.5,N
1503870155.9,286047000.5,N
1503870175.7,286047002.6,N
1503870195.5,286047001.6,N
1503870215.4,286047003.6,N
1503870235.2,286047005.4,P
1503870255.0,286047004.1,N
1503870255.9,286047004.1,N
1503870275.8,286047002.2,N
1503870295.6,286046998.2,N
1503870315.4,286046998.1,N
1503870335.2,286047000.5,N
1503870355.1,286046998.4,N
1503870356.0,286046998.4,N
1503870375.8,286046998.1,N
1503870395.6,286047000.7,N
1503870415.5,286047000.6,N
1503870435.3,286047001.8,N
1503870455.1,286047001.5,N
1503870475.9,286047001.8,N
1503870495.7,286047001.9,N
1503870515.5,286047002.0,N
1503870535.4,286047003.5,N
1503870555.2,286047001.4,N
1503870575.0,286047000.1,N
1503870575.9,286047000.1,N
1503870595.8,286047002.1,N
1503870615.6,286047002.9,N
1503870635.4,286047005.4,N
1503870655.2,286047004.5,N
1503870675.1,286047004.7,N
1503870676.0,286047004.7,N
1503870695.8,286047004.1,N
1503870715.6,286047003.1,N
1503870735.5,286047001.7,N
1503870755.3,286047003.7,N
1503870775.1,286047006.0,N
1503870795.9,286047007.1,P
1503870815.7,286047005.8,N
1503870835.5,286047005.9,N
1503870855.4,286047002.1,N
1503870875.2,286047004.0,N
1503870895.0,286047003.0,N
1503870895.9,286047003.0,N
1503870915.8,286047003.7,N
1503870935.6,286047003.1,N
1503870955.4,286047005.1,P
1503870975.3,286047002.8,P
1503870995.1,286046999.0,N
1503871015.8,286047001.1,N
1503871035.7,286046998.7,N
1503871055.5,286047000.8,N
1503871075.3,286047002.7,N
1503871095.2,286047000.9,N
1503871115.9,286046999.4,N
1503871135.7,286047000.7,N
1503871155.5,286047002.6,N
1503871175.4,286047001.2,N
1503871195.2,286047001.1,N
